Showing default

FLOCK 4BE 10, 60503

Orbit data source: Space-Track

FLOCK 4BE 10, 60503 is a payload satellite owned by Planet (US) in SSO that was launched on Fri, 16 Aug 2024 UTC via an FALCON 9 launch vehicle from the Air Force Western Test Range (AFWTR). Payload-class satellites include a variety of spacecraft equipped with specific instruments for various scientific and technological missions. These include communications satellites like Starlink; space stations such as the ISS; scientific satellites like the Hubble; Earth observation satellites from companies like Planet Labs, Umbra, and HawkEye 360; GPS; miniature CubeSats for education and research; and military/defense satellites.

Loading next visibility...
Identifier
60503, 2024-149AM
Orbit
SSO
Country
Flag of USUS
Related business
Manufacturer
Planet
Mission
Operational Commercial Imaging
Bus & Motor
CUBESAT 3U, Unknown motor
Mass
5.7 kg wet, 5.7 kg dry
Launch date (UTC)
2024-08-16 (1 year ago)
Launch vehicle
FALCON 9
Launch site
Air Force Western Test Range (AFWTR)
Object type
Payload
Rocket body
Debris
Shape & HBR
Box + 2 Pan, 0.1 m
Radar Cross Section
0.035 m², Medium (>0.1 m² and < 1m²)

Expand to show TLE details & history
Last TLE update: 11 hours ago

TLE from 11 hours ago
0 FLOCK 4BE 10
1 60503U 24149AM  25261.80320024  .00010952  00000-0  38208-3 0  9990
2 60503  97.4040 339.6495 0004754 152.2032 207.9464 15.29777584 60636
Epoch: 2025-09-18T19:16Z
TLE epoch observation values (Epoch: 2025-09-18T19:16:36.5Z)
Latitude
0.00003°
Longitude
52.53786°
Altitude
482.46 km
Speed
7.623 km/s
True Right ascension
22h 38m 35s
True Declination
0° 00' 00"
Sunlit
Object was in full shadow at epoch
Visualization orbit readout
Latitude
Unknown
Longitude
Unknown
Altitude
Unknown
Speed
Unknown
Apparent Right ascension
Unknown
Apparent Declination
Unknown
Sunlit
N/A
Visualization observer readout
Local Sidereal Time
23:30:58
Azimuth
Unknown
Elevation
Unknown
Doppler factor
Unknown
Orbital elements
Apogee altitude
476.687 km
Perigee altitude
470.172 km
Semi-major axis
6,851.566 km
Eccentricity
0.00048
Inclination
97.404°
RAAN
339.6495°
Arg. of periapsis
152.2032°
True anomaly
207.92088°
Mean anomaly
207.9464°
Eccentric anomaly
207.93364°
Mean motion
3.827 °/min
Orbital period
94.07 mins
BSTAR
0.00038208
Loading maneuver chart data...
Computing Atmospheric mass density...
Loading historical data...
Loading historical data...
Loading historical data...
Loading historical data...
Loading historical data...
Loading historical data...
Loading historical data...

Documentation

Showing up to 5 results
|